Weather History for Watonga, OK

Change the Weather History Date:

Tuesday, June 4, 2013

  Actual Average Record
Temperature  
Mean Temperature 72 °F -  
Max Temperature 85 °F 83 °F 96 °F (2006)
Min Temperature 61 °F 61 °F 51 °F (1970)
Cooling Degree Days 8    
Growing Degree Days 22 (Base 50)    
Moisture  
Dew Point 68 °F    
Average Humidity 86    
Maximum Humidity 100    
Minimum Humidity 64    
Precipitation  
Precipitation 1.21 in - - ()
Sea Level Pressure  
Sea Level Pressure 29.87 in    
Wind  
Wind Speed - (North)    
Max Wind Speed -    
Max Gust Speed -    
Visibility 10 miles    
Events Rain , Thunderstorm    
Averages and records for this station are not official NWS values.
T = Trace of Precipitation, MM = Missing Value Source: NWS Daily Summary

Daily Weather History Graph

Daily Weather History Graph

Search for Another Location

Airport:

Trip Planner

Search our weather history database for the weather conditions in past years. The results will help you decide how hot, cold, wet, or windy it might be!

Date:

Astronomy

Jun. 04, 2013 Rise Set
Actual Time 6:17 AM CDT 8:46 PM CDT
Civil Twilight 5:47 AM CDT 9:16 PM CDT
Nautical Twilight 5:11 AM CDT 9:53 PM CDT
Astronomical Twilight 4:30 AM CDT 10:34 PM CDT
Moon 3:42 AM CDT (6/4) 5:22 PM CDT (6/4)
Length of Visible Light 15h 28m
Length of Day
14h 28m
Waning Crescent, 14% of the Moon is Illuminated
Jun 4
Waning Crescent
Jun 8
New
Jun 16
First Quarter
Jun 23
Full
Jun 29
Last Quarter

Hourly Weather History & Observations

Time (CDT) Temp. Heat Index Dew Point Humidity Pressure Visibility Wind Dir Wind Speed Gust Speed Precip Events Conditions
12:15 AM 65.5 °F - 65.5 °F 100% 29.98 in 7.0 mi North - - 0.08 in Rain , Thunderstorm Light Thunderstorms and Rain
12:35 AM 65.5 °F - 65.5 °F 100% 29.95 in 10.0 mi North - - 0.14 in Rain , Thunderstorm Light Thunderstorms and Rain
12:55 AM 65.7 °F - 65.7 °F 100% 29.89 in 10.0 mi North - - 0.16 in Rain , Thunderstorm Rain
1:15 AM 65.8 °F - 65.8 °F 100% 29.88 in 10.0 mi North - - N/A   Overcast
1:35 AM 66.2 °F - 66.2 °F 100% 29.87 in 10.0 mi North - - N/A   Overcast
1:55 AM 66.2 °F - 66.2 °F 100% 29.89 in 10.0 mi North - - N/A   Overcast
2:15 AM 66.4 °F - 66.4 °F 100% 29.90 in 10.0 mi North - - N/A   Overcast
2:35 AM 65.7 °F - 65.7 °F 100% 29.93 in 7.0 mi North - - 0.11 in Rain , Thunderstorm Heavy Thunderstorms and Rain
2:55 AM 61.9 °F - 61.9 °F 100% 29.96 in 7.0 mi North - - 0.36 in Rain , Thunderstorm Light Thunderstorms and Rain
3:15 AM 62.1 °F - 62.1 °F 100% 29.95 in 7.0 mi North - - 0.12 in Rain , Thunderstorm Light Thunderstorms and Rain
3:35 AM 62.6 °F - 62.6 °F 100% 29.99 in 7.0 mi North - - 0.21 in Rain , Thunderstorm Light Thunderstorms and Rain
3:55 AM 62.2 °F - 62.2 °F 100% 29.99 in 4.0 mi North - - 0.55 in Rain , Thunderstorm Heavy Thunderstorms and Rain
4:15 AM 61.7 °F - 61.7 °F 100% 29.87 in 5.0 mi North - - 0.12 in Rain , Thunderstorm Thunderstorms and Rain
4:35 AM 62.1 °F - 62.1 °F 100% 29.83 in 10.0 mi North - - 0.14 in Rain , Thunderstorm Light Thunderstorms and Rain
4:55 AM 62.6 °F - 62.6 °F 100% 29.85 in 10.0 mi North - - 0.14 in Thunderstorm Unknown
5:15 AM 62.2 °F - 62.2 °F 100% 29.85 in 10.0 mi North - - N/A Thunderstorm Scattered Clouds
5:35 AM 62.6 °F - 62.6 °F 100% 29.84 in 10.0 mi North - - N/A   Scattered Clouds
5:55 AM 62.8 °F - 62.8 °F 100% 29.85 in 10.0 mi North - - N/A Thunderstorm Mostly Cloudy
6:15 AM 63.0 °F - 63.0 °F 100% 29.83 in 10.0 mi North - - N/A   Mostly Cloudy
6:35 AM 63.5 °F - 63.5 °F 100% 29.84 in 10.0 mi North - - N/A   Scattered Clouds
6:55 AM 64.0 °F - 64.0 °F 100% 29.86 in 10.0 mi North - - N/A   Clear
7:15 AM 64.4 °F - 64.4 °F 100% 29.84 in 10.0 mi North - - N/A   Clear
7:35 AM 64.8 °F - 64.4 °F 99% 29.83 in 10.0 mi North - - N/A   Clear
7:55 AM 65.7 °F - 65.1 °F 98% 29.84 in 10.0 mi North - - N/A   Clear
8:15 AM 66.7 °F - 65.5 °F 96% 29.86 in 10.0 mi North - - N/A   Clear
8:35 AM 66.7 °F - 66.2 °F 98% 29.87 in 10.0 mi North - - N/A   Clear
8:55 AM 68.0 °F - 66.4 °F 95% 29.87 in 10.0 mi North - - N/A   Clear
9:15 AM 68.9 °F - 64.4 °F 86% 29.87 in 10.0 mi North - - N/A   Clear
9:35 AM 70.2 °F - 64.9 °F 83% 29.87 in 10.0 mi North - - N/A   Clear
9:55 AM 71.1 °F - 64.8 °F 80% 29.87 in 10.0 mi North - - N/A   Clear
10:15 AM 71.8 °F - 65.5 °F 80% 29.87 in 10.0 mi North - - N/A   Clear
10:35 AM 72.7 °F - 66.2 °F 80% 29.88 in 10.0 mi North - - N/A   Clear
10:55 AM 73.4 °F - 66.6 °F 79% 29.88 in 10.0 mi North - - N/A   Clear
11:15 AM 74.7 °F - 67.1 °F 77% 29.90 in 10.0 mi North - - N/A   Scattered Clouds
11:35 AM 75.2 °F - 68.0 °F 78% 29.89 in 10.0 mi North - - N/A   Mostly Cloudy
11:55 AM 75.2 °F - 68.0 °F 78% 29.90 in 10.0 mi North - - N/A   Overcast
12:15 PM 75.2 °F - 68.5 °F 80% 29.90 in 10.0 mi North - - N/A   Overcast
12:35 PM 76.1 °F - 68.9 °F 78% 29.89 in 10.0 mi North - - N/A   Overcast
12:55 PM 77.4 °F - 69.4 °F 76% 29.88 in 10.0 mi North - - N/A   Overcast
1:15 PM 78.8 °F - 69.3 °F 72% 29.88 in 10.0 mi North - - N/A   Scattered Clouds
1:35 PM 79.2 °F - 69.6 °F 72% 29.87 in 10.0 mi North - - N/A   Scattered Clouds
1:55 PM 80.4 °F 83.8 °F 70.3 °F 71% 29.87 in 10.0 mi North - - N/A   Mostly Cloudy
2:15 PM 81.0 °F 84.4 °F 70.0 °F 69% 29.87 in 10.0 mi North - - N/A   Mostly Cloudy
2:35 PM 81.3 °F 85.0 °F 70.2 °F 69% 29.86 in 10.0 mi North - - N/A   Mostly Cloudy
2:55 PM 81.9 °F 85.8 °F 70.2 °F 68% 29.86 in 10.0 mi North - - N/A   Scattered Clouds
3:15 PM 83.3 °F 88.2 °F 71.2 °F 67% 29.85 in 10.0 mi North - - N/A   Scattered Clouds
3:35 PM 83.8 °F 88.9 °F 71.6 °F 66% 29.85 in 10.0 mi North - - N/A   Scattered Clouds
3:55 PM 84.4 °F 89.7 °F 71.6 °F 65% 29.85 in 10.0 mi North - - N/A   Scattered Clouds
4:15 PM 84.4 °F 89.4 °F 71.1 °F 64% 29.85 in 10.0 mi North - - N/A   Scattered Clouds
4:35 PM 84.9 °F 90.4 °F 71.6 °F 64% 29.85 in 10.0 mi North - - N/A   Scattered Clouds
4:55 PM 84.7 °F 90.4 °F 71.6 °F 65% 29.85 in 10.0 mi North - - N/A   Mostly Cloudy
5:15 PM 84.7 °F 90.0 °F 71.4 °F 64% 29.84 in 10.0 mi North - - N/A   Mostly Cloudy
5:35 PM 84.6 °F 90.0 °F 71.8 °F 65% 29.84 in 10.0 mi North - - N/A   Mostly Cloudy
5:55 PM 84.0 °F 89.6 °F 72.1 °F 67% 29.84 in 10.0 mi North - - N/A   Mostly Cloudy
6:15 PM 82.6 °F 87.8 °F 72.1 °F 71% 29.85 in 10.0 mi North - - N/A   Mostly Cloudy
6:35 PM 81.7 °F 86.7 °F 72.7 °F 74% 29.84 in 10.0 mi North - - N/A   Overcast
6:55 PM 81.9 °F 87.5 °F 73.6 °F 76% 29.84 in 10.0 mi North - - N/A   Overcast
7:15 PM 81.7 °F 87.1 °F 73.4 °F 76% 29.84 in 10.0 mi North - - N/A   Scattered Clouds
7:35 PM 80.6 °F 85.2 °F 73.2 °F 78% 29.84 in 10.0 mi North - - N/A   Clear
7:55 PM 79.7 °F - 72.7 °F 79% 29.85 in 10.0 mi North - - N/A   Clear
8:15 PM 78.8 °F - 72.9 °F 82% 29.85 in 10.0 mi North - - N/A   Clear
8:35 PM 78.1 °F - 72.9 °F 84% 29.85 in 10.0 mi North - - N/A   Clear
8:55 PM 77.2 °F - 72.7 °F 86% 29.86 in 10.0 mi North - - N/A   Clear
9:15 PM 76.5 °F - 72.5 °F 87% 29.86 in 10.0 mi North - - N/A   Clear
9:35 PM 76.1 °F - 72.5 °F 89% 29.86 in 10.0 mi North - - N/A   Clear
9:55 PM 75.2 °F - 72.5 °F 91% 29.87 in 10.0 mi North - - N/A   Clear
10:15 PM 74.5 °F - 73.9 °F 98% 29.88 in 10.0 mi North - - N/A   Clear
10:35 PM 73.8 °F - 73.8 °F 100% 29.88 in 10.0 mi North - - N/A   Clear
10:55 PM 73.4 °F - 73.4 °F 100% 29.88 in 10.0 mi North - - N/A   Clear
11:15 PM 72.5 °F - 72.5 °F 100% 29.89 in 10.0 mi North - - N/A   Clear
11:35 PM 72.7 °F - 72.7 °F 100% 29.89 in 10.0 mi North - - N/A   Mostly Cloudy
11:55 PM 74.1 °F - 74.1 °F 100% 29.90 in 10.0 mi North - - N/A   Mostly Cloudy